Location: Rimouski
(48.4330°N, 68.5170°W)
Time: 07:08:04
(UTC-04:00)

Daily predictions for brighter satellites

Satellite Brightness Start Highest point End
(mag) Time Altitude Azimuth Time Altitude Azimuth Time Altitude Azimuth
ATLAS CENTAUR R/B 4.5 20:41:37 10° SSW 20:48:29 59° ESE 21:08:53 10° NE
ATLAS 3B R/B 3.0 20:45:17 10° SW 20:52:27 82° NW 20:59:20 10° NE
Cosmos 1340 Rocket 3.9 20:51:29 10° SSE 20:54:56 27° E 20:58:24 10° NNE
Cosmos 1378 Rocket 4.0 20:51:22 10° SSW 20:55:39 66° W 20:59:57 10° N
COSMOS 2487 4.4 20:53:32 10° SW 20:56:47 35° WNW 21:00:03 10° N
Okean 1 Rocket 4.2 20:53:02 10° NNW 20:57:12 45° W 21:01:19 10° SSW
Cosmos 1975 Rocket 3.0 20:55:09 10° S 20:59:25 68° E 21:03:45 10° NNE
Shenzhou-11 Module 3.4 20:59:23 10° WSW 21:01:50 23° S 21:04:18 10° SE
Cosmos 1242 Rocket 3.0 21:00:16 10° NNW 21:03:55 64° W 21:07:29 10° S
Aureole 2 Rocket 2.1 21:04:05 10° NNW 21:07:06 61° ENE 21:09:53 10° SSE
Helios 1A 4.0 21:05:39 10° SE 21:09:21 32° ENE 21:13:06 10° N
CZ-4C R/B 3.5 21:03:07 10° NW 21:09:41 47° NE 21:17:08 10° ESE
MetOp-B 4.2 21:04:39 10° SSE 21:09:57 71° ENE 21:15:19 10° N
Cosmos 1544 Rocket 3.7 21:07:55 10° N 21:12:20 66° ENE 21:16:45 10° SSE
Cosmos 2150 Rocket 4.1 21:07:08 10° NNW 21:12:35 87° ENE 21:17:54 10° SSE
BREEZE-M R/B 2.2 21:09:30 10° WSW 21:13:25 60° SSE 21:15:59 10° E
Cosmos 2084 3.3 21:13:58 10° SSW 21:18:13 66° SE 21:22:15 10° NE
BREEZE-M DEB 4.4 21:14:37 10° W 21:18:25 72° N 21:21:15 10° E
Cosmos 1975 4.5 21:16:24 10° NNW 21:20:03 33° W 21:23:41 10° SSW
Cosmos 2233 Rocket 4.4 21:16:26 10° SSW 21:22:34 69° WNW 21:28:48 10° N
SJ 16-02 1.8 21:20:06 10° NNW 21:24:26 48° ENE 21:28:17 13° SE
SL-08 RB Rocket 3.7 21:21:18 10° SSE 21:25:50 89° ENE 21:30:27 10° NNW
Cosmos 2360 Rocket 2.2 21:21:17 10° NNW 21:26:58 83° ENE 21:32:17 12° SSE
Resurs 01 Rocket 3.9 21:26:14 10° SW 21:29:40 22° W 21:33:08 10° NW
Cosmos 2219 Rocket 3.3 21:25:49 10° NNW 21:30:52 33° NE 21:35:53 10° ESE
Cosmos 1937 Rocket 4.3 21:27:52 10° NNW 21:32:47 46° WSW 21:37:41 10° S
Cosmos 1536 Rocket 3.9 21:28:34 10° SSE 21:32:50 49° E 21:37:10 10° NNE
Cosmos 540 Rocket 3.9 21:28:33 10° S 21:33:22 40° ESE 21:38:12 10° NE
Nadezhda 4 Rocket 4.4 21:27:38 10° N 21:33:47 51° ENE 21:39:18 13° SSE
Helios 1B rocket 3.6 21:31:25 10° NE 21:34:57 26° E 21:37:36 15° SE
Landsat 7 4.3 21:35:48 14° SE 21:39:45 49° ENE 21:44:21 10° N
Cosmos 1763 Rocket 3.7 21:35:55 10° SSW 21:41:14 78° WNW 21:46:32 10° NNE
USA 32 4.4 21:39:57 10° N 21:45:11 67° W 21:50:21 10° S
Cosmos 841 Rocket 3.5 21:41:30 10° SSW 21:46:45 85° ESE 21:52:04 10° NNE
IGS 5A 4.1 21:45:02 16° SE 21:47:59 41° ENE 21:51:56 10° N
Cosmos 2333 Rocket 3.0 21:47:40 10° NNW 21:53:05 42° NE 21:57:38 14° ESE
SPOT 5 2.7 21:49:27 15° SSE 21:53:05 83° ENE 21:57:45 10° NNW
USA 234 3.2 21:47:38 10° NE 21:54:14 84° SE 22:00:49 10° SW
Cosmos 372 Rocket 3.9 21:49:57 10° NNW 21:55:08 83° ENE 21:59:02 18° SSE
Meteor 1-23 Rocket 4.2 21:49:41 10° S 21:55:15 77° E 22:00:50 10° NNE
COSMOS 2428 2.9 21:50:39 10° NNW 21:56:19 63° ENE 22:00:36 18° SE
SL-16 R/B 4.4 21:53:10 10° N 21:56:42 16° NE 22:00:13 10° ENE
Terra 2.2 21:55:07 18° SE 21:58:30 50° ENE 22:03:07 10° N
CZ-2C R/B 3.8 22:00:16 17° SE 22:04:09 47° ENE 22:09:34 10° N
Lacrosse 5 rocket 1.9 22:00:50 10° WNW 22:05:00 46° SW 22:07:25 21° SSE
CARTOSAT-1 3.7 22:02:12 20° SSE 22:05:05 62° ENE 22:09:22 10° N
Cosmos 1833 4.2 22:01:36 10° SSW 22:07:20 89° ESE 22:13:03 10° NNE
Meteor 2-4 Rocket 4.4 22:02:18 10° SSW 22:07:39 54° WNW 22:13:10 10° N
NOSS 3-2 (C) 4.3 22:03:14 10° WSW 22:09:13 55° NW 22:15:58 10° NE
Cosmos 2034 Rocket 4.0 22:04:08 10° S 22:10:17 90° SSE 22:16:30 10° N
Spot 1 3.9 22:08:59 22° SSE 22:11:36 77° ENE 22:15:41 10° NNW
ERS-1 Rocket 3.9 22:07:46 10° S 22:12:33 44° W 22:17:23 10° NNW
Cosmos 1464 Rocket 4.4 22:07:35 10° SSW 22:13:55 66° WNW 22:20:18 10° N
Abrixas rocket 2.0 22:12:23 10° WSW 22:15:37 81° S 22:18:52 10° E
ISS -2.9 22:13:47 10° W 22:16:59 49° N 22:20:11 10° ENE
Cosmos 1025 Rocket 3.0 22:14:38 20° S 22:17:36 66° E 22:21:57 10° NNE
Cosmos 2297 Rocket 3.9 22:17:57 13° ESE 22:19:06 14° E 22:21:56 10° ENE
Cosmos 2322 4.2 22:14:01 10° NW 22:19:37 55° WSW 22:23:44 18° S
Cosmos 1606 Rocket 4.1 22:15:34 10° N 22:19:51 46° ENE 22:22:10 24° SE
Cosmos 2322 Rocket 4.3 22:16:46 10° WNW 22:20:33 19° W 22:24:19 10° SW
SPOT 1/Viking Rocket 3.9 22:16:49 16° S 22:20:56 61° WSW 22:26:04 10° NNW
Cosmos 2227 Rocket 3.8 22:21:07 16° ESE 22:22:25 17° E 22:25:55 10° ENE
H-2A R/B 3.6 22:20:31 10° SSW 22:24:48 29° W 22:29:12 10° NNW
Cosmos 2237 Rocket 3.0 22:19:48 10° NNW 22:25:13 42° NE 22:29:13 17° ESE
Tiangong 2 2.2 22:22:39 10° WSW 22:25:10 27° SSW 22:25:10 27° SSW
CENTAUR R/B 2.8 22:22:35 10° SW 22:28:45 76° NW 22:35:57 10° NE
Meteor 1-29 2.9 22:26:17 10° NNE 22:29:47 77° ESE 22:31:30 28° S
SL-16 R/B 4.5 22:26:42 10° WNW 22:29:50 15° W 22:32:55 10° SW
Cosmos 1125 Rocket 3.9 22:25:08 10° NNW 22:30:18 57° WSW 22:33:42 21° S
YAOGAN 11 4.1 22:31:34 26° SSE 22:34:03 85° ENE 22:38:38 10° NNW
Cosmos 1066 Rocket 4.1 22:30:19 20° S 22:34:09 75° E 22:39:38 10° NNE
Cosmos 1634 Rocket 4.1 22:33:15 21° SSE 22:37:30 64° E 22:43:46 10° NNE
Meteor 1-22 Rocket 4.0 22:43:07 10° N 22:48:33 84° E 22:51:22 29° SSE
Mayak 0.8 22:48:06 10° NE 22:50:27 14° E 22:50:59 14° E
ERBS 3.7 22:48:34 10° NW 22:51:44 36° NNE 22:53:56 17° E
H-2A R/B 4.1 22:49:51 12° E 22:52:08 18° ENE 22:55:00 10° NNE
Cosmos 1174 3.6 22:49:18 10° NNW 22:52:16 52° NE 22:53:06 38° ESE
Cosmos 2219 3.2 22:48:54 22° S 22:52:41 63° ESE 22:58:23 10° NNE
Cosmos 2084 Rocket 3.9 22:49:18 10° NW 22:53:14 51° NE 22:55:11 26° ESE
Cosmos 1766 3.2 22:49:54 10° N 22:53:54 81° E 22:55:20 38° SSE
Nimbus 7 Rocket 4.4 22:51:04 10° NNE 22:56:59 87° ESE 23:01:13 20° SSW
CZ-4C R/B 3.1 22:51:37 10° NW 22:58:37 61° WSW 23:03:19 26° SSE
Cosmos 1892 Rocket 3.6 22:57:18 36° SSE 22:58:54 61° E 23:03:11 10° NNE
Intercosmos 25 3.6 22:58:18 36° SSE 22:59:32 51° E 23:02:51 10° NNE
SAR-Lupe-4 3.5 23:00:31 46° SSE 23:01:28 78° ENE 23:05:04 10° NNW
SJ 16-02 3.4 22:59:25 10° NW 23:02:41 20° W 23:05:18 13° SW
Cosmos 1544 4.0 23:00:15 10° NNW 23:03:48 42° W 23:05:13 28° SW
Okean 1-7 Rocket 3.9 23:05:54 25° SSW 23:08:28 68° WNW 23:13:01 10° N
Cosmos 1758 3.9 23:05:35 10° N 23:09:32 46° ENE 23:10:43 35° ESE
COSMOS 2455 3.5 23:07:46 29° SE 23:09:35 35° ESE 23:15:00 10° NE
Cosmos 2360 Rocket 4.3 23:06:42 10° WNW 23:10:14 17° W 23:13:46 10° SW
Helios 1B rocket 4.0 23:06:33 10° N 23:10:16 33° WNW 23:13:59 10° SW
Cosmos 2228 2.9 23:07:09 10° N 23:11:27 84° W 23:12:59 40° S
CZ-2C R/B 2.7 23:06:00 10° NNE 23:11:40 81° ESE 23:14:47 28° S
Cosmos 1733 3.9 23:10:00 10° N 23:13:42 42° ENE 23:14:36 35° ESE
Cosmos 2219 Rocket 2.7 23:09:39 10° NW 23:15:01 49° WSW 23:17:36 28° SSW
Cosmos 1726 Rocket 3.9 23:11:13 10° NNW 23:15:34 60° W 23:17:20 34° SSW
SAR-Lupe-1 4.0 23:18:42 53° S 23:19:27 78° WSW 23:23:03 10° NNW
Cosmos 2058 Rocket 3.4 23:25:30 10° NNW 23:29:58 61° W 23:31:33 37° SSW
Cosmos 1805 3.6 23:26:08 10° NNW 23:30:01 56° W 23:31:01 41° SSW
Cosmos 1842 3.3 23:31:21 46° SSW 23:32:26 76° W 23:36:22 10° N
Cosmos 1818 4.3 23:33:23 32° SE 23:34:14 34° ESE 23:39:06 10° NE
Cosmos 1470 3.0 23:30:57 10° N 23:34:47 54° ENE 23:35:32 46° ESE
Iridium 4 Rocket 3.8 23:33:13 35° S 23:35:46 79° E 23:41:43 10° N
BREEZE-M R/B 2.9 23:33:50 10° WNW 23:35:35 38° WNW 23:35:35 38° WNW
Terra 3.6 23:33:59 15° SW 23:36:31 22° W 23:40:14 10° NW
USA 234 4.2 23:30:44 10° ENE 23:37:01 50° NNW 23:43:17 10° W
Cosmos 2333 Rocket 3.1 23:32:05 10° NW 23:37:19 38° WSW 23:39:38 27° SSW
COSMOS 2428 4.3 23:35:40 10° NW 23:40:05 24° WSW 23:42:36 17° SW
SL-16 R/B 2.5 23:36:21 10° NNW 23:42:00 64° ENE 23:44:53 29° SE
CZ-4C R/B 3.8 23:44:28 42° SE 23:45:49 64° ENE 23:50:13 10° N
DELTA 2 DEB (DPAF) 4.1 23:46:10 45° SSE 23:47:29 78° ENE 23:51:58 10° NNW
ALOS 2 2.6 23:46:19 45° SE 23:47:34 72° ENE 23:51:58 10° N
SL-19 R/B 4.4 23:42:27 10° NNE 23:48:41 79° ESE 23:51:29 34° S
Cosmos 1655 Rocket 4.4 23:43:38 10° NNW 23:49:54 59° W 23:53:03 29° SSW
Cosmos 1953 2.2 23:47:20 10° N 23:51:22 84° WSW 23:52:04 59° S
Cosmos 1980 4.2 23:46:05 10° NW 23:51:30 48° WSW 23:53:29 34° SSW
Abrixas rocket 2.7 23:48:48 10° W 23:51:14 47° W 23:51:14 47° W
ISS -3.2 23:50:33 10° WNW 23:53:47 56° NNE 23:55:03 31° ENE
